Regional Weather Roundup
Issued by NWS Charleston, SC

Current Version | Previous Version | Text Only | Print | Product List | Glossary Off
Versions: 1 2 3 4 5 6 7 8 9 10 11 12 13 14 15 16 17 18 19 20 21 22 23 24 25 26 27 28 29 30 31 32 33 34 35 36 37 38 39 40 41 42 43 44 45 46 47 48 49 50
000 ASUS42 KCHS 260527 RWRCHS REGIONAL WEATHER ROUNDUP NATIONAL WEATHER SERVICE CHARLESTON SC 100 AM EDT FRI MAY 26 2017 NOTE: "FAIR" INDICATES FEW OR NO CLOUDS BELOW 12,000 FEET WITH NO SIGNIFICANT WEATHER AND/OR OBSTRUCTIONS TO VISIBILITY. NOT ALL STATIONS ARE QUALITY CONTROLLED. USE DATA WITH CAUTION... ESPECIALLY DEWPOINT OBSERVATIONS. SCZ027-030-031-034>040-042>050-260600- ...SOUTHEAST SOUTH CAROLINA... CITY SKY/WX TMP DP RH WIND PRES REMARKS N CHARLESTON CLEAR 65 53 65 SW9 29.91R WATERFRONT PRK N/A 68 59 73 VRB3 29.90R JOHNS ISLAND FAIR 66 57 72 SW3 29.92S PINOPOLIS N/A 68 57 68 SW9 29.80R MONCKS CORNER FAIR 63 50 63 SW7 29.90S SUMMERVILLE FAIR 61 54 77 S3 29.92R BEAUFORT MCAS CLEAR 65 56 72 SW6 29.93R BEAUFORT ARPT FAIR 68 55 64 SW6 29.93R HILTON HEAD IS CLEAR 68 55 64 SW5 29.94R WALTERBORO CLEAR 61 54 77 SW6 29.93R ALLENDALE FAIR 63 54 72 CALM 29.92R ...SOUTHERN MIDLANDS AND PEE DEE... CITY SKY/WX TMP DP RH WIND PRES REMARKS GEORGETOWN FAIR 63 52 67 SW7 29.90S KINGSTREE FAIR 61 54 77 CALM 29.88R ORANGEBURG CLEAR 60 54 80 SW8 29.90R BARNWELL FAIR 59 55 88 CALM 29.92R AIKEN FAIR 57 52 82 SW6 29.95R MANNING FAIR 64 55 72 SW18G24 29.89R COLUMBIA CLEAR 60 53 77 SW7 29.87R SUMTER CLEAR 62 53 70 SW9 29.85R FLORENCE CLEAR 64 54 69 W8 29.85R MYRTLE BEACH CLEAR 66 54 65 SW8 29.88R N MYRTLE BEACH CLEAR 68 54 60 W14 29.85S $$ GAZ063-065-086>088-099>101-113>116-118-119-134>141-150-260600- ...SOUTHEAST GEORGIA... CITY SKY/WX TMP DP RH WIND PRES REMARKS SAVANNAH ARPT CLEAR 63 53 70 SW3 29.94R HUNTER AAF CLEAR 62 59 90 CALM 29.92R FORT STEWART CLEAR 59 55 89 CALM 29.93R STATESBORO CLEAR 64 56 73 CALM 29.94R SYLVANIA CLEAR 62 58 87 CALM 29.94R CLAXTON FAIR N/A N/A N/A CALM 29.95S ...CSRA...CENTRAL AND FAR SOUTHEAST GEORGIA... CITY SKY/WX TMP DP RH WIND PRES REMARKS THOMSON CLEAR 56 53 89 NW5 29.98R AUGUSTA-BUSH CLEAR 64 54 69 SW8 29.91R AUGUSTA-DANIEL CLEAR 65 51 60 VRB3 29.92R SWAINSBORO FAIR 59 55 88 CALM 29.95S VIDALIA CLEAR 61 57 88 CALM 29.95S EASTMAN FAIR 57 56 97 CALM 29.99R HAZLEHURST FAIR 63 59 87 CALM 29.95R ALMA CLEAR 57 55 93 CALM 29.95R WAYCROSS CLEAR 61 61 99 CALM 29.95F JESUP FAIR 59 54 82 CALM 29.95S BAXLEY FAIR 59 59 100 CALM 29.96R BRUNSWICK CLEAR 59 57 94 CALM 29.95F SAINT SIMONS CLEAR 66 57 72 CALM 29.94S $$ SCZ027-028-034-036>038-045-046-048>050-GAZ119-141-260600- ...LAKE AND SUPPLEMENTAL COASTAL OBSERVATIONS... STATION/POSITION TIME TEMP WIND PRES WAVE SWELL AIR SEA DIR/SP/G HT/PER HT/PER/DIR (UTC) (F) (DEG/KT/KT) (MB) (FT/S) (FT/S/D) WINYAH BAY 0445 67 250/ 9 1012.0R LAKE MURRAY 0450 68 250/ 11/ 14 1010.8R ACE BASIN NERRS 0445 63 CALM 1013.0S FORT PULASKI 0500 69 240/ 5/ 6 1014.0 SAPELO ISLAND 0500 69 280/ 3 1014.0 $$ ANZ835-935-AMZ111-154-330-350-352-354-370-450-454-472-260600- ...C-MAN AND BUOY OBSERVATIONS... STATION/POSITION TIME TEMP WIND PRES WAVE SWELL AIR SEA DIR/SP/G HT/PER HT/PER/DIR (UTC) (F) (DEG/KT/KT) (MB) (FT/S) (FT/S/D) BUOY 41004 0510 74 75 260/ 17/ 23 1012.5 BUOY 41008 0450 76 77 270/ 14/ 17 1013.7R 2/ 8 2/ 90/ 8 FOLLY BEACH CMAN 0500 68 240/ 6/ 9 1013.6R CAPERS NEARSHORE 0508 78 76 250/ 17/ 21 1012.4R FRIPP NEARSHORE 0508 75 76 270/ 16/ 19 1012.8R STATION/POSITION TIME TEMP WIND PRES WAVE SWELL AIR SEA DIR/SP/G HT/PER HT/PER/DIR (UTC) (F) (DEG/KT/KT) (MB) (FT/S) (FT/S/D) 5E ST. MARYS GA 0500 78 N/A 1/ 6 FRYING PAN BUOY 0510 74 75 250/ 25/ 29 1011.0 BUOY 41025 0450 74 78 250/ 27/ 35 1007.1R 9/ 8 CAPE LOOKOUT NC 0500 72 250/ 21/ 26 1008.6R BUOY 41002 0450 76 76 250/ 21/ 25 1013.0R 10/ 9 BUOY 41010 0500 79 78 220/ 4/ 6 1013.8 ST AUGUSTINE FL 0500 68 76 240/ 7/ 8 1015.7R $$

USA.gov is the U.S. government's official web portal to all federal, state and local government web resources and services.